Powrót do katalogu

FENGYUN 1C DEB

AktywnyPO
NORAD 36647·DEBRIS·🇨🇳 China

Wystrzelony May 10, 1999 z Taiyuan Satellite Launch Center

Loading…

Następne Przeloty (najbliższe 24 godziny)

TLE

ŚwieżeSource: Space-Track

Epoka: Sep 11, 2026, 09:58 UTC

1 36647U 99025DXR 26254.41541391  .00002318  00000-0  14956-2 0  9999
2 36647  96.1252 307.4463 0235530 223.0697 135.1829 13.90802813342000

Śledź FENGYUN 1C DEB w czasie rzeczywistym z AllMySat

Download on the App Store